DAMPETORP Weather Reports


Display with metric or nautical units.
time (UTC)temp
F
wind
direction
speed
MPH
gust
MPH
rain 1hr
in
rain 24hr
in
rain mn
in
humidity
%
barometer
mb
20260508160001 61 322 3.0 11.0 0.00 0.00 0.00 24 1022.6
20260508154600 62 355 2.0 13.0 0.00 0.00 0.00 24 1022.6
20260508153103 62 330 2.0 11.0 0.00 0.00 0.00 25 1022.6
20260508151602 63 329 1.0 8.0 0.00 0.00 0.00 25 1022.6
20260508150058 63 300 6.0 12.0 0.00 0.00 0.00 24 1022.6
20260508144605 63 307 3.0 10.0 0.00 0.00 0.00 23 1022.6
20260508143059 62 309 5.0 10.0 0.00 0.00 0.00 24 1022.7
20260508141600 63 310 2.0 10.0 0.00 0.00 0.00 24 1022.7
20260508140059 63 291 2.0 8.0 0.00 0.00 0.00 25 1022.7
20260508134606 63 311 1.0 7.0 0.00 0.00 0.00 28 1022.7
20260508133054 63 309 1.0 11.0 0.00 0.00 0.00 28 1022.8
20260508131553 63 355 5.0 10.0 0.00 0.00 0.00 27 1022.8
20260508130052 63 341 4.0 8.0 0.00 0.00 0.00 27 1022.9
20260508124551 63 309 4.0 12.0 0.00 0.00 0.00 28 1023.0
20260508123104 62 291 6.0 9.0 0.00 0.00 0.00 28 1023.1
20260508121551 62 311 4.0 9.0 0.00 0.00 0.00 29 1023.0
20260508120049 63 307 2.0 10.0 0.00 0.00 0.00 28 1023.1
20260508114552 63 307 4.0 8.0 0.00 0.00 0.00 29 1023.1
20260508113058 62 309 3.0 12.0 0.00 0.00 0.00 28 1023.1
20260508111547 63 320 3.0 7.0 0.00 0.00 0.00 28 1023.0
20260508110043 62 360 3.0 7.0 0.00 0.00 0.00 30 1023.0
20260508104543 62 323 2.0 8.0 0.00 0.00 0.00 28 1023.1
20260508103042 61 309 4.0 12.0 0.00 0.00 0.00 28 1023.2
20260508101539 60 324 4.0 16.0 0.00 0.00 0.00 28 1023.1
20260508100037 61 321 5.0 11.0 0.00 0.00 0.00 27 1023.2
20260508094549 61 331 3.0 10.0 0.00 0.00 0.00 26 1023.1
20260508093036 61 317 5.0 12.0 0.00 0.00 0.00 24 1023.2
20260508091540 60 300 7.0 14.0 0.00 0.00 0.00 23 1023.1
20260508090031 59 334 3.0 10.0 0.00 0.00 0.00 23 1023.2
20260508084529 59 312 4.0 8.0 0.00 0.00 0.00 24 1023.2
20260508083025 58 324 5.0 11.0 0.00 0.00 0.00 24 1023.2
20260508081552 57 327 6.0 9.0 0.00 0.00 0.00 24 1023.3
20260508080020 56 326 2.0 11.0 0.00 0.00 0.00 27 1023.3
20260508074518 55 305 2.0 9.0 0.00 0.00 0.00 26 1023.2
20260508073017 56 327 5.0 11.0 0.00 0.00 0.00 31 1023.2
20260508071526 55 293 2.0 9.0 0.00 0.00 0.00 39 1023.1
20260508070008 54 321 3.0 8.0 0.00 0.00 0.00 41 1022.9
20260508064509 52 302 2.0 7.0 0.00 0.00 0.00 44 1022.8
20260508063002 52 321 1.0 4.0 0.00 0.00 0.00 46 1022.6
20260508061558 50 299 0.0 6.0 0.00 0.00 0.00 48 1022.5
20260508060057 49 8 1.0 4.0 0.00 0.00 0.00 52 1022.4
20260508054552 48 307 1.0 3.0 0.00 0.00 0.00 52 1022.2
20260508053048 46 340 1.0 3.0 0.00 0.00 0.00 56 1022.1
20260508051545 46 311 1.0 3.0 0.00 0.00 0.00 57 1021.9
20260508050041 44 70 0.0 1.0 0.00 0.00 0.00 64 1021.8
20260508044538 40 71 0.0 0.0 0.00 0.00 0.00 76 1021.5
20260508043034 39 71 0.0 0.0 0.00 0.00 0.00 78 1021.4
20260508041531 37 62 0.0 0.0 0.00 0.00 0.00 84 1021.3
20260508040026 34 34 0.0 0.0 0.00 0.00 0.00 89 1021.2
20260508034526 32 34 0.0 0.0 0.00 0.00 0.00 91 1021.2
20260508033024 30 34 0.0 0.0 0.00 0.00 0.00 93 1021.1
20260508031523 29 34 0.0 0.0 0.00 0.00 0.00 93 1021.0
20260508030021 29 33 0.0 0.0 0.00 0.00 0.00 93 1020.9
20260508024532 29 33 0.0 1.0 0.00 0.00 0.00 92 1020.8
20260508023024 29 33 0.0 0.0 0.00 0.00 0.00 92 1020.6
20260508021515 29 33 0.0 0.0 0.00 0.00 0.00 92 1020.5
20260508020013 29 33 0.0 0.0 0.00 0.00 0.00 91 1020.4
20260508014511 30 33 0.0 0.0 0.00 0.00 0.00 89 1020.4
20260508013009 30 33 0.0 0.0 0.00 0.00 0.00 88 1020.3
20260508011506 30 33 0.0 0.0 0.00 0.00 0.00 88 1020.0
20260508010004 30 33 0.0 0.0 0.00 0.00 0.00 86 1019.8
20260508004502 30 33 0.0 0.0 0.00 0.00 0.00 85 1019.6
20260508003105 30 33 0.0 0.0 0.00 0.00 0.00 85 1019.5
20260508001557 31 33 0.0 0.0 0.00 0.00 0.00 85 1019.4
20260508000054 31 33 0.0 0.0 0.00 0.00 0.00 83 1019.2
20260507234551 32 33 0.0 0.0 0.00 0.00 0.00 83 1019.1
20260507233049 32 33 0.0 0.0 0.00 0.00 0.00 81 1018.9
20260507231548 33 33 0.0 0.0 0.00 0.00 0.00 80 1018.8
20260507230048 33 33 0.0 0.0 0.00 0.00 0.00 79 1018.7
20260507224544 33 33 0.0 0.0 0.00 0.00 0.00 78 1018.6
20260507223037 34 33 0.0 0.0 0.00 0.00 0.00 77 1018.5
20260507221540 35 33 0.0 0.0 0.00 0.00 0.00 76 1018.4
20260507220033 35 33 0.0 0.0 0.00 0.00 0.00 71 1018.3
20260507214534 35 33 0.0 0.0 0.00 0.00 0.00 67 1018.2
20260507213036 36 33 0.0 0.0 0.00 0.00 0.00 65 1017.9
20260507211528 37 33 0.0 0.0 0.00 0.00 0.00 64 1017.8
20260507210025 37 33 0.0 0.0 0.00 0.00 0.00 63 1017.6
20260507204524 38 33 0.0 0.0 0.00 0.00 0.00 64 1017.5
20260507203031 39 53 0.0 0.0 0.00 0.00 0.00 59 1017.3
20260507201525 40 53 0.0 1.0 0.00 0.00 0.00 59 1017.3
20260507200020 41 53 0.0 0.0 0.00 0.00 0.00 53 1017.0
20260507194519 42 53 0.0 0.0 0.00 0.00 0.00 53 1016.8
20260507193018 44 53 0.0 0.0 0.00 0.00 0.00 45 1016.6
20260507191515 46 49 0.0 1.0 0.00 0.00 0.00 43 1016.3
20260507190012 47 94 0.0 0.0 0.00 0.00 0.00 40 1016.0
20260507184511 50 94 0.0 0.0 0.00 0.00 0.00 34 1015.9
20260507183012 53 94 0.0 1.0 0.00 0.00 0.00 30 1015.8
20260507181509 55 91 0.0 1.0 0.00 0.00 0.00 27 1015.7
20260507180011 56 99 0.0 2.0 0.00 0.00 0.00 25 1015.6
20260507174507 57 135 0.0 3.0 0.00 0.00 0.00 23 1015.4
20260507173014 58 108 1.0 5.0 0.00 0.00 0.00 21 1015.3
20260507171508 58 145 0.0 4.0 0.00 0.00 0.00 20 1015.1
20260507170003 59 146 3.0 5.0 0.00 0.00 0.00 20 1015.0
20260507164605 60 69 1.0 4.0 0.00 0.00 0.00 19 1014.9
20260507163059 59 146 0.0 7.0 0.00 0.00 0.00 20 1014.8
20260507161558 59 53 2.0 7.0 0.00 0.00 0.00 21 1014.8